Date String (YYYY-MM-DD hh:mm:ss) UTC,Instrument flags,absolute air pressure of the measurement (hPa),sample flow rate (lpm),inlet stack bypass flow (lpm),air temperature of the measurement (°C),ambient temperature measured by the external sensor (°C),aerosol sample conditioner tube jacket temperature (°C),OPC LED temperature (°C),internal box temperature (°C),relative humidity of the measurement (%),span deviation,mass concentration of particles derived from Lorenz-Mie calculation of OPC scattering (μg/m³),mass concentration of particles derived from Lorenz-Mie calculation of OPC scattering (μg/m³),mass concentration of particles derived from Lorenz-Mie calculation of OPC scattering (μg/m³)
DateTimeUTC,F1_M11,P_M11,Q1_M11,Q2_M11,T1_M11,T2_M11,T3_M11,T4_M11,T5_M11,U1_M11,ZSPAN_M11,X0_M11,X2_M11,X1_M11
2024-05-02 19:00:00,SystemResetWarning,0824.6,5.00,000.00,024.8,024.1,000.0,033.2,026.6,009.9,0000.0,0012.30,0003.72,0002.32
2024-05-02 19:01:00,SystemResetWarning,0824.6,5.00,000.00,024.8,024.1,000.0,033.2,026.6,010.3,0000.0,0011.52,0003.73,0002.35
2024-05-02 19:02:00,SystemResetWarning,0824.7,5.00,000.00,024.8,024.1,000.0,033.2,026.6,010.1,0000.0,0010.51,0003.73,0002.39
2024-05-02 19:03:00,SystemResetWarning,0824.7,5.00,000.00,024.8,024.1,000.0,033.2,026.6,010.3,0000.0,0009.81,0003.70,0002.43
2024-05-02 19:04:00,SystemResetWarning,0824.7,4.99,000.00,024.8,024.1,000.0,033.2,026.6,010.4,0000.0,0009.40,0003.70,0002.44
2024-05-02 19:05:00,SystemResetWarning,0824.7,4.99,000.00,024.8,024.1,000.0,033.2,026.6,010.5,0000.0,0009.20,0003.68,0002.47
2024-05-02 19:06:00,SystemResetWarning,0824.7,5.01,000.00,024.8,024.1,000.0,033.2,026.6,010.8,0000.0,0009.17,0003.69,0002.51
2024-05-02 19:07:00,SystemResetWarning,0824.7,5.02,000.00,024.8,024.1,000.0,033.2,026.6,010.2,0000.0,0009.17,0003.69,0002.55
2024-05-02 19:08:00,SystemResetWarning,0824.7,4.99,000.00,024.8,024.1,000.0,033.2,026.6,010.0,0000.0,0009.55,0003.71,0002.59
2024-05-02 19:09:00,SystemResetWarning,0824.7,4.99,000.00,024.8,024.1,000.0,033.2,026.6,010.3,0000.0,0009.43,0003.74,0002.63
2024-05-02 19:10:00,SystemResetWarning,0824.7,5.00,000.00,024.8,024.2,000.0,033.2,026.6,010.7,0000.0,0010.23,0003.77,0002.65
2024-05-02 19:11:00,SystemResetWarning,0824.7,5.01,000.00,024.8,024.2,000.0,033.2,026.7,010.6,0000.0,0010.34,0003.77,0002.65
2024-05-02 19:12:00,SystemResetWarning,0824.7,5.00,000.00,024.9,024.2,000.0,033.2,026.7,010.8,0000.0,0011.10,0003.77,0002.64
2024-05-02 19:13:00,SystemResetWarning,0824.7,4.99,000.00,024.9,024.2,000.0,033.2,026.6,010.1,0000.0,0011.67,0003.81,0002.65
2024-05-02 19:14:00,SystemResetWarning,0824.7,4.99,000.00,024.9,024.2,000.0,033.2,026.7,010.6,0000.0,0012.23,0003.88,0002.66
2024-05-02 19:15:00,SystemResetWarning,0824.7,5.00,000.00,024.9,024.2,000.0,033.2,026.6,010.4,0000.0,0011.95,0003.89,0002.64
2024-05-02 19:16:00,SystemResetWarning,0824.5,5.01,000.00,024.9,024.2,000.0,033.2,026.6,010.7,0000.0,0012.08,0003.92,0002.64
2024-05-02 19:17:00,SystemResetWarning,0824.5,5.00,000.00,024.9,024.2,000.0,033.2,026.6,010.5,0000.0,0012.83,0003.91,0002.63
2024-05-02 19:18:00,SystemResetWarning,0824.6,4.99,000.00,024.9,024.3,000.0,033.2,026.7,010.7,0000.0,0012.88,0003.92,0002.63
2024-05-02 19:19:00,SystemResetWarning,0824.6,5.00,000.00,024.9,024.3,000.0,033.3,026.7,010.6,0000.0,0012.60,0003.92,0002.61
2024-05-02 19:20:00,SystemResetWarning,0824.5,4.99,000.00,024.9,024.3,000.0,033.3,026.7,010.6,0000.0,0012.36,0003.93,0002.60
2024-05-02 19:21:00,SystemResetWarning,0824.5,5.00,000.00,024.9,024.3,000.0,033.3,026.7,010.9,0000.0,0011.96,0003.94,0002.60
2024-05-02 19:22:00,SystemResetWarning,0824.5,5.00,000.00,024.9,024.3,000.0,033.3,026.7,010.4,0000.0,0011.71,0003.94,0002.62
2024-05-02 19:23:00,SystemResetWarning,0824.4,5.00,000.00,024.9,024.3,000.0,033.3,026.7,010.1,0000.0,0011.32,0003.96,0002.66
2024-05-02 19:24:00,SystemResetWarning,0824.4,5.00,000.00,025.0,024.3,000.0,033.3,026.8,010.1,0000.0,0010.66,0003.98,0002.68
2024-05-02 19:25:00,SystemResetWarning,0824.4,5.01,000.00,025.0,024.3,000.0,033.3,026.7,010.0,0000.0,0010.42,0003.93,0002.67
2024-05-02 19:26:00,SystemResetWarning,0824.4,5.00,000.00,025.0,024.3,000.0,033.3,026.7,010.5,0000.0,0010.10,0003.89,0002.68
2024-05-02 19:27:00,SystemResetWarning,0824.5,5.00,000.00,025.0,024.3,000.0,033.4,026.8,010.6,0000.0,0010.02,0003.88,0002.71
2024-05-02 19:28:00,SystemResetWarning,0824.6,4.99,000.00,025.0,024.3,000.0,033.3,026.8,010.9,0000.0,0009.90,0003.92,0002.72
2024-05-02 19:29:00,SystemResetWarning,0824.6,4.99,000.00,025.0,024.4,000.0,033.4,026.8,011.1,0000.0,0009.79,0003.91,0002.72
2024-05-02 19:30:00,SystemResetWarning,0824.6,5.00,000.00,025.0,024.4,000.0,033.4,026.8,011.3,0000.0,0009.86,0003.91,0002.71
2024-05-02 19:31:00,SystemResetWarning,0824.5,5.00,000.00,025.0,024.4,000.0,033.4,026.8,011.1,0000.0,0009.90,0003.94,0002.73
2024-05-02 19:32:00,SystemResetWarning,0824.6,5.01,000.00,025.0,024.4,000.0,033.4,026.8,010.9,0000.0,0010.52,0003.95,0002.75
2024-05-02 19:33:00,SystemResetWarning,0824.6,5.01,000.00,025.0,024.4,000.0,033.4,026.8,010.6,0000.0,0010.54,0003.94,0002.74
2024-05-02 19:34:00,SystemResetWarning,0824.6,5.00,000.00,025.0,024.4,000.0,033.4,026.8,010.8,0000.0,0011.05,0003.96,0002.74
2024-05-02 19:35:00,SystemResetWarning,0824.5,4.99,000.00,025.0,024.4,000.0,033.4,026.8,011.1,0000.0,0011.05,0003.92,0002.72
2024-05-02 19:36:00,SystemResetWarning,0824.4,5.00,000.00,025.1,024.4,000.0,033.4,026.8,011.8,0000.0,0011.31,0003.95,0002.73
2024-05-02 19:37:00,SystemResetWarning,0824.5,4.99,000.00,025.1,024.4,000.0,033.4,026.9,011.3,0000.0,0012.53,0003.97,0002.73
2024-05-02 19:38:00,SystemResetWarning,0824.4,5.01,000.00,025.1,024.4,000.0,033.5,026.9,010.9,0000.0,0012.53,0004.01,0002.74
2024-05-02 19:39:00,SystemResetWarning,0824.4,5.01,000.00,025.1,024.4,000.0,033.4,026.8,010.9,0000.0,0013.13,0004.01,0002.74
2024-05-02 19:40:00,SystemResetWarning,0824.4,4.99,000.00,025.1,024.4,000.0,033.4,026.8,011.1,0000.0,0013.68,0003.97,0002.74
2024-05-02 19:41:00,SystemResetWarning,0824.4,4.99,000.00,025.1,024.4,000.0,033.4,026.8,010.8,0000.0,0014.40,0004.00,0002.74
2024-05-02 19:42:00,SystemResetWarning,0824.4,5.00,000.00,025.1,024.4,000.0,033.4,026.8,011.3,0000.0,0014.42,0003.99,0002.75
2024-05-02 19:43:00,SystemResetWarning,0824.4,5.01,000.00,025.1,024.4,000.0,033.4,026.8,010.5,0000.0,0013.65,0003.93,0002.74
2024-05-02 19:44:00,SystemResetWarning,0824.3,5.01,000.00,025.1,024.4,000.0,033.4,026.8,010.6,0000.0,0013.37,0003.92,0002.74
2024-05-02 19:45:00,SystemResetWarning,0824.3,5.00,000.00,025.1,024.4,000.0,033.4,026.8,011.5,0000.0,0013.26,0003.90,0002.74
2024-05-02 19:46:00,SystemResetWarning,0824.3,5.00,000.00,025.1,024.4,000.0,033.5,026.8,011.7,0000.0,0013.21,0003.91,0002.73
2024-05-02 19:47:00,SystemResetWarning,0824.3,5.00,000.00,025.1,024.3,000.0,033.5,026.8,010.5,0000.0,0013.46,0003.91,0002.73
2024-05-02 19:48:00,SystemResetWarning,0824.3,5.00,000.00,025.1,024.3,000.0,033.4,026.8,010.4,0000.0,0012.35,0003.96,0002.78
2024-05-02 19:49:00,SystemResetWarning,0824.3,5.00,000.00,025.1,024.4,000.0,033.5,026.8,010.8,0000.0,0012.60,0003.93,0002.80
2024-05-02 19:50:00,SystemResetWarning,0824.4,5.00,000.00,025.1,024.4,000.0,033.5,026.9,010.8,0000.0,0011.93,0003.93,0002.81
2024-05-02 19:51:00,SystemResetWarning,0824.4,4.99,000.00,025.1,024.4,000.0,033.5,026.9,011.0,0000.0,0011.47,0003.95,0002.82
2024-05-02 19:52:00,SystemResetWarning,0824.4,4.99,000.00,025.1,024.4,000.0,033.5,026.8,011.1,0000.0,0012.29,0003.98,0002.82
2024-05-02 19:53:00,SystemResetWarning,0824.4,5.00,000.00,025.1,024.4,000.0,033.5,026.8,011.0,0000.0,0012.62,0004.04,0002.80
2024-05-02 19:54:00,SystemResetWarning,0824.4,5.01,000.00,025.1,024.4,000.0,033.5,026.8,011.4,0000.0,0013.43,0004.07,0002.79
2024-05-02 19:55:00,SystemResetWarning,0824.4,5.01,000.00,025.1,024.4,000.0,033.5,026.9,011.9,0000.0,0013.52,0004.10,0002.77
2024-05-02 19:56:00,SystemResetWarning,0824.3,4.99,000.00,025.1,024.4,000.0,033.5,026.9,010.9,0000.0,0013.23,0004.12,0002.77
2024-05-02 19:57:00,SystemResetWarning,0824.3,5.00,000.00,025.1,024.4,000.0,033.5,026.8,010.9,0000.0,0013.71,0004.16,0002.78
2024-05-02 19:58:00,SystemResetWarning,0824.4,5.00,000.00,025.1,024.4,000.0,033.5,026.8,011.4,0000.0,0013.40,0004.14,0002.76
2024-05-02 19:59:00,SystemResetWarning,0824.3,4.99,000.00,025.1,024.4,000.0,033.5,026.8,011.5,0000.0,0013.05,0004.08,0002.69
